London-Corbin, KY

3:01 PM EDT on September 21, 2017 (GMT -0400)
London-Corbin / McKee

Weather History for KLOZ - January, 2014

Change the Weather History Date:

Thursday, January 23, 2014

  Actual Average Record
Temperature  
Mean Temperature 13 °F 36 °F  
Max Temperature 20 °F 45 °F 70 °F (1967)
Min Temperature 5 °F 26 °F -12 °F (1963)
Degree Days  
Heating Degree Days 52 29  
Month to date heating degree days 786 684  
Since 1 July heating degree days 2393 2336  
Cooling Degree Days 0 0  
Month to date cooling degree days 0 0  
Year to date cooling degree days 0 0  
Moisture  
Dew Point 2 °F    
Average Humidity 56    
Maximum Humidity 67    
Minimum Humidity 44    
Precipitation  
Precipitation T in 0.11 in 2.01 in (1999)
Month to date precipitation 2.19 2.61  
Year to date precipitation 2.19 2.61  
Sea Level Pressure  
Sea Level Pressure 30.42 in    
Wind  
Wind Speed 8 mph (NW)    
Max Wind Speed 20 mph    
Max Gust Speed 25 mph    
Visibility 9 miles    
Events Snow    
T = Trace of Precipitation, MM = Missing Value Source: NWS Daily Summary

Daily Weather History Graph

Daily Weather History Graph

Search for Another Location

Airport or City:

Trip Planner

Search our weather history database for the weather conditions in past years. The results will help you decide how hot, cold, wet, or windy it might be!

Date:

Astronomy

Jan. 23, 2014 Rise Set
Actual Time 7:45 AM EST 5:51 PM EST
Civil Twilight 7:17 AM EST 6:19 PM EST
Nautical Twilight 6:45 AM EST 6:50 PM EST
Astronomical Twilight 6:14 AM EST 7:21 PM EST
Moon 12:11 AM EST (1/23) 11:30 AM EST (1/23)
Length of Visible Light 11h 02m
Length of Day
10h 06m
Waning Gibbous, 55% of the Moon is Illuminated
Jan 23
Waning Gibbous
Jan 24
Last Quarter
Jan 30
New
Feb 6
First Quarter
Feb 14
Full

Hourly Weather History & Observations

Time (EST) Temp. Windchill Dew Point Humidity Pressure Visibility Wind Dir Wind Speed Gust Speed Precip Events Conditions
12:53 AM 19.9 °F 14.9 °F 8.1 °F 60% 30.17 in 10.0 mi SSW 3.5 mph - N/A   Scattered Clouds
1:53 AM 19.0 °F 13.9 °F 8.1 °F 62% 30.18 in 10.0 mi SSW 3.5 mph - N/A   Mostly Cloudy
2:53 AM 19.0 °F 13.9 °F 8.1 °F 62% 30.19 in 10.0 mi SW 3.5 mph - N/A   Mostly Cloudy
3:53 AM 18.0 °F 11.1 °F 8.1 °F 65% 30.21 in 10.0 mi SW 4.6 mph - N/A   Overcast
4:53 AM 19.9 °F 10.1 °F 10.0 °F 65% 30.22 in 10.0 mi West 8.1 mph - N/A   Overcast
5:53 AM 19.0 °F 11.1 °F 10.9 °F 71% 30.25 in 10.0 mi WNW 5.8 mph - N/A   Overcast
6:09 AM 19.0 °F 6.8 °F 10.9 °F 71% 30.21 in 10.0 mi NNW 11.5 mph - N/A   Overcast
6:53 AM 17.1 °F 7.6 °F 9.0 °F 71% 30.29 in 10.0 mi NW 6.9 mph - 0.00 in   Overcast
7:53 AM 16.0 °F 6.3 °F 6.1 °F 65% 30.33 in 10.0 mi NW 6.9 mph - N/A   Mostly Cloudy
8:53 AM 16.0 °F 1.1 °F 5.0 °F 62% 30.37 in 10.0 mi NW 15.0 mph 25.3 mph N/A   Mostly Cloudy
9:44 AM 15.1 °F 1.1 °F 7.0 °F 70% 30.35 in 4.0 mi NNW 12.7 mph - 0.00 in Snow Light Snow
9:53 AM 15.1 °F 3.3 °F 7.0 °F 70% 30.42 in 2.5 mi NNW 9.2 mph - 0.00 in Snow Light Snow
10:03 AM 15.1 °F 1.8 °F 7.0 °F 70% 30.37 in 1.8 mi NNW 11.5 mph - 0.00 in Snow Light Snow
10:15 AM 15.1 °F 0.5 °F 6.1 °F 68% 30.37 in 2.5 mi NNW 13.8 mph - 0.00 in Snow Light Snow
10:30 AM 12.9 °F -0.9 °F 3.9 °F 67% 30.39 in 4.0 mi NNW 11.5 mph - 0.00 in Snow Light Snow
10:46 AM 12.9 °F -3.9 °F 1.9 °F 62% 30.40 in 10.0 mi NNW 17.3 mph 20.7 mph 0.00 in   Overcast
10:53 AM 12.9 °F -1.6 °F 1.9 °F 62% 30.46 in 10.0 mi NNW 12.7 mph - 0.00 in   Overcast
11:40 AM 12.9 °F -0.9 °F -0.9 °F 54% 30.42 in 10.0 mi NW 11.5 mph - N/A   Scattered Clouds
11:53 AM 12.9 °F -0.9 °F -0.9 °F 54% 30.48 in 10.0 mi NW 11.5 mph - N/A   Partly Cloudy
12:53 PM 12.9 °F -0.9 °F -0.9 °F 54% 30.49 in 10.0 mi NNW 11.5 mph - N/A   Clear
1:53 PM 12.9 °F -2.2 °F -4.0 °F 47% 30.51 in 10.0 mi WNW 13.8 mph 18.4 mph N/A   Clear
2:53 PM 14.0 °F -0.2 °F -5.1 °F 43% 30.50 in 10.0 mi NNW 12.7 mph - N/A   Clear
3:53 PM 14.0 °F 1.2 °F -4.0 °F 45% 30.52 in 10.0 mi NNW 10.4 mph - N/A   Clear
4:53 PM 12.0 °F -2.0 °F -6.0 °F 44% 30.54 in 10.0 mi NNW 11.5 mph - N/A   Clear
5:53 PM 10.9 °F 0.2 °F -6.0 °F 47% 30.56 in 10.0 mi NNW 6.9 mph - N/A   Clear
6:53 PM 10.0 °F -0.9 °F -6.0 °F 48% 30.59 in 10.0 mi NNW 6.9 mph - N/A   Clear
7:53 PM 9.0 °F 0.6 °F -5.1 °F 53% 30.61 in 10.0 mi NNW 4.6 mph - N/A   Clear
8:53 PM 8.1 °F -2.0 °F -5.1 °F 55% 30.62 in 10.0 mi NNW 5.8 mph - N/A   Clear
9:53 PM 7.0 °F -6.6 °F -5.1 °F 58% 30.64 in 10.0 mi NNW 9.2 mph - N/A   Clear
10:53 PM 6.1 °F -2.8 °F -6.0 °F 58% 30.65 in 10.0 mi NW 4.6 mph - N/A   Clear
11:53 PM 5.0 °F -2.1 °F -6.0 °F 61% 30.66 in 10.0 mi NW 3.5 mph - N/A   Clear